MEASAT-3A

Last updated on Jan. 15, 2021, 6:30 a.m. UTC

1 35362U 09032A   21014.76716028 -.00000248  00000-0  00000-0 0  9993
2 35362   0.0580 237.3401 0002332  36.3949 208.3330  1.00268769 42406
UTC
Height (km)
Latitude
Longitude
Inclination
Orbital Period
UTC large
Height (km)
Speed (km/s)
/
Latitude / Longitude
Inclination (degrees)
Orbital Period (minutes)
Azimuth
Elevation
Range (km)
Doppler Factor
iOS Compass Heading
iOS Angle

Next 30 passes for location: Hong Kong

Rise time Rise Azimuth (degrees) Set time Set Azimuth (degrees) Duration Max altitude (degrees)

No matching passes for this satellites